HUBBLE
1 20580U 90037B 10140.12080359 .00000344 00000-0 13527-4 0 5672
2 20580 028.4685 063.0764 0003378 257.6508 102.3718 15.00972641900534
ISS
1 25544U 98067A 10140.82248692 .00013793 00000-0 98175-4 0 1895
2 25544 051.6470 010.9984 0009832 338.4835 114.7562 15.74141501659164
CO-58
1 28895U 05043F 10139.88055314 .00000004 00000-0 10262-4 0 05896
2 28895 098.0196 025.2895 0018065 018.7937 341.3956 14.59890288242859
FALCON
1 30776U 07006E 10139.59725111 .00000365 00000-0 29144-4 0 08314
2 30776 035.4336 217.8682 0002060 316.9272 043.1284 15.03655992175753
MAST
1 31126U 07012K 10139.93020155 -.00000142 00000-0 -21294-4 0 08701
2 31126 097.9385 183.3992 0093767 314.6178 044.7332 14.53584800163958
CAPE1
1 31130U 07012P 10140.78133310 .00000184 00000-0 53301-4 0 8909
2 31130 097.9400 181.6694 0101651 320.2128 039.1635 14.52177127163684
COMPASS
1 32787U 08021E 10140.21412370 .00000575 00000-0 79282-4 0 6765
2 32787 097.8966 205.3536 0016203 021.0631 339.1257 14.81866344111359
AAUSAT2
1 32788U 08021F 10140.15235597 .00000631 00000-0 86087-4 0 6699
2 32788 097.8939 205.4127 0016163 022.0108 338.1816 14.82008783111358
DO-64
1 32789U 08021G 10139.69129224 .00000885 00000-0 11764-3 0 6854
2 32789 097.9025 205.4005 0016113 021.8780 338.3139 14.82138432111286
CO-66
1 32791U 08021J 10140.63719988 .00000531 00000-0 74078-4 0 6682
2 32791 097.8958 205.7886 0016723 017.4002 342.7762 14.81654700111379
RS-30
1 32953U 08025A 10140.76291027 .00000010 00000-0 00000 0 0 7108
2 32953 082.5032 046.7314 0018686 158.0551 202.1333 12.43005073 90337
TACSAT-3
1 35001U 09028A 10139.93328315 .00003394 00000-0 83910-4 0 02926
2 35001 040.4574 023.7990 0019953 156.6171 203.5563 15.41572655056274
PHARMSAT
1 35002U 09028B 10140.80348655 .00003309 00000-0 80304-4 0 2755
2 35002 040.4706 016.6726 0023162 166.4579 193.6863 15.42131848 56423
HAWKSAT1
1 35003U 09028C 10139.92535491 .00006505 00000-0 13855-3 0 02941
2 35003 040.4634 017.5484 0021361 174.9099 185.1968 15.44990531056342
CP6
1 35004U 09028D 10139.93677658 .00007831 00000-0 16165-3 0 02912
2 35004 040.4666 016.7526 0020304 177.7418 182.3515 15.45736858056346
AEROCUB3
1 35005U 09028E 10140.78502488 .00024469 00000-0 42699-3 0 3183
2 35005 040.4732 010.3096 0016984 198.0491 161.9725 15.49924867 56494
DRAGNSAT
1 35690U 09038B 10076.22711312 .05715194 12509-4 31481-3 0 3162
2 35690 051.6170 315.4586 0004999 310.9891 057.3269 16.42150010 36561
POLLUX
1 35693U 09038E 10087.99866888 .23496735 12787-4 17715-3 0 3529
2 35693 051.6099 254.5746 0006270 294.4866 097.5899 16.52338462 38395
CASTOR
1 35694U 09038F 10140.85895061 .00070880 13399-4 15397-3 0 3911
2 35694 051.6357 346.0533 0002752 125.5377 234.5892 15.98460136 46686
METEOR-M
1 35865U 09049A 10140.68933360 .00000176 00000-0 10000-3 0 3120
2 35865 098.7593 194.6802 0003407 077.2976 282.8560 14.21830236 34819
RS-38
1 35869U 09049E 10140.66377829 .00000177 00000-0 10000-3 0 3181
2 35869 098.7596 194.6859 0005575 084.4555 275.7243 14.21981806 34818
